,,,PA_Meas_PMT16A,,PR_Meas_QMR101_102,,RH_Meas_QMH101,,SR_Meas_QMS101,,TA_Meas_QMH101,,GenWind,,GenWind,
date,time,status,PA,status,PR,status,RH,status,SR,status,TA,status,DirAvg,status,SpdAvg,
2012-05-28, 00:00:05,VALID,1000.18,VALID,0,VALID,88.9843,VALID,0,VALID,25.3212,VALID,15,VALID,0.546484,
2012-05-28, 00:01:05,VALID,1000.15,VALID,0,VALID,88.9156,VALID,0,VALID,25.3017,VALID,15,VALID,0.528906,
2012-05-28, 00:02:05,VALID,1000.1,VALID,0,VALID,88.8317,VALID,0,VALID,25.2802,VALID,15,VALID,0.286719,
2012-05-28, 00:03:05,VALID,1000.06,VALID,0,VALID,89.0682,VALID,0,VALID,25.3017,VALID,15,VALID,0.508984,
2012-05-28, 00:04:05,VALID,1000.04,VALID,0,VALID,89.2971,VALID,0,VALID,25.2607,VALID,15,VALID,0.325,
2012-05-28, 00:05:05,VALID,1000.03,VALID,0,VALID,89.2742,VALID,0,VALID,25.2412,VALID,16,VALID,0.171094,
2012-05-28, 00:06:05,VALID,1000.01,VALID,0,VALID,89.4726,VALID,0,VALID,25.2626,VALID,16,VALID,0.393359,
2012-05-28, 00:07:05,VALID,1000,VALID,0,VALID,89.4954,VALID,0,VALID,25.2431,VALID,16,VALID,0.153125,
2012-05-28, 00:08:05,VALID,1000,VALID,0,VALID,89.1368,VALID,0,VALID,25.2431,VALID,16,VALID,0.682813,
2012-05-28, 00:09:05,VALID,1000.03,VALID,0,VALID,89.0071,VALID,0,VALID,25.2626,VALID,16,VALID,0.338672,
2012-05-28, 00:10:05,VALID,1000.01,VALID,0,VALID,88.8011,VALID,0,VALID,25.2626,VALID,16,VALID,0.527734,
2012-05-28, 00:11:05,VALID,1000.01,VALID,0,VALID,88.6257,VALID,0,VALID,25.2821,VALID,16,VALID,0.519141,
2012-05-28, 00:12:05,VALID,999.992,VALID,0,VALID,88.5036,VALID,0,VALID,25.3212,VALID,49,VALID,0.449219,
2012-05-28, 00:13:05,VALID,1000.02,VALID,0,VALID,88.3739,VALID,0,VALID,25.3407,VALID,49,VALID,0.578906,
2012-05-28, 00:14:05,VALID,1000.01,VALID,0,VALID,88.3052,VALID,0,VALID,25.3388,VALID,57,VALID,0.661719,
2012-05-28, 00:15:05,VALID,1000.02,VALID,0,VALID,88.1908,VALID,0,VALID,25.3583,VALID,57,VALID,0.747266,
2012-05-28, 00:16:05,VALID,1000.01,VALID,0,VALID,88.1603,VALID,0,VALID,25.3973,VALID,57,VALID,0.878125,
2012-05-28, 00:17:05,VALID,1000.03,VALID,0,VALID,88.1603,VALID,0,VALID,25.3993,VALID,57,VALID,0.787109,
2012-05-28, 00:18:05,VALID,1000.02,VALID,0,VALID,88.206,VALID,0,VALID,25.3993,VALID,57,VALID,0.777344,
2012-05-28, 00:19:05,VALID,1000.03,VALID,0,VALID,88.3052,VALID,0,VALID,25.3797,VALID,57,VALID,0.696875,
2012-05-28, 00:20:05,VALID,1000.04,VALID,0,VALID,88.5036,VALID,0,VALID,25.3602,VALID,57,VALID,0.705469,
2012-05-28, 00:21:05,VALID,1000.01,VALID,0,VALID,88.7249,VALID,0,VALID,25.2997,VALID,57,VALID,0.720312,
2012-05-28, 00:22:05,VALID,1000.01,VALID,0,VALID,88.9461,VALID,0,VALID,25.3017,VALID,57,VALID,0.608594,
2012-05-28, 00:23:05,VALID,1000.02,VALID,0,VALID,89.1903,VALID,0,VALID,25.2626,VALID,57,VALID,0.488281,
2012-05-28, 00:24:05,VALID,1000.04,VALID,0,VALID,89.6557,VALID,0,VALID,25.1826,VALID,57,VALID,0.489844,
2012-05-28, 00:25:05,VALID,999.993,VALID,0,VALID,89.793,VALID,0,VALID,25.1845,VALID,57,VALID,0.500781,
2012-05-28, 00:26:05,VALID,999.997,VALID,0,VALID,90.0371,VALID,0,VALID,25.1455,VALID,57,VALID,0.468359,
2012-05-28, 00:27:05,VALID,999.962,VALID,0,VALID,90.2279,VALID,0,VALID,25.085,VALID,57,VALID,0.503906,
2012-05-28, 00:28:05,VALID,999.945,VALID,0,VALID,90.266,VALID,0,VALID,25.0869,VALID,57,VALID,0.679297,
2012-05-28, 00:29:05,VALID,999.932,VALID,0,VALID,90.3423,VALID,0,VALID,25.0674,VALID,57,VALID,0.442187,
2012-05-28, 00:30:05,VALID,999.924,VALID,0,VALID,90.5254,VALID,0,VALID,25.0479,VALID,48,VALID,0.762109,
2012-05-28, 00:31:05,VALID,999.9,VALID,0,VALID,90.6933,VALID,0,VALID,25.0088,VALID,47,VALID,0.581641,
2012-05-28, 00:32:05,VALID,999.906,VALID,0,VALID,90.9146,VALID,0,VALID,25.0088,VALID,47,VALID,0.591797,
2012-05-28, 00:33:05,VALID,999.902,VALID,0,VALID,91.1587,VALID,0,VALID,24.9484,VALID,47,VALID,0.552734,
2012-05-28, 00:34:05,VALID,999.933,VALID,0,VALID,91.4639,VALID,0,VALID,24.9093,VALID,47,VALID,0.38125,
2012-05-28, 00:35:05,VALID,999.916,VALID,0,VALID,91.6317,VALID,0,VALID,24.9308,VALID,47,VALID,0.347656,
2012-05-28, 00:36:05,VALID,999.918,VALID,0,VALID,91.792,VALID,0,VALID,24.8898,VALID,47,VALID,0.151562,
2012-05-28, 00:37:05,VALID,999.899,VALID,0,VALID,91.8911,VALID,0,VALID,24.8917,VALID,47,VALID,0.139453,
2012-05-28, 00:38:05,VALID,999.899,VALID,0,VALID,91.9217,VALID,0,VALID,24.8703,VALID,47,VALID,0,
2012-05-28, 00:39:05,VALID,999.877,VALID,0,VALID,91.9598,VALID,0,VALID,24.8508,VALID,47,VALID,0,
2012-05-28, 00:40:05,VALID,999.881,VALID,0,VALID,91.9064,VALID,0,VALID,24.8722,VALID,47,VALID,0,
2012-05-28, 00:41:05,VALID,999.846,VALID,0,VALID,91.9369,VALID,0,VALID,24.8527,VALID,47,VALID,0,
2012-05-28, 00:42:05,VALID,999.803,VALID,0,VALID,91.8148,VALID,0,VALID,24.7922,VALID,47,VALID,0,
2012-05-28, 00:43:05,VALID,999.799,VALID,0,VALID,91.2503,VALID,0,VALID,24.7922,VALID,120,VALID,1.2293,
2012-05-28, 00:44:05,VALID,999.762,VALID,0,VALID,90.6246,VALID,0,VALID,24.8508,VALID,114,VALID,1.0168,
2012-05-28, 00:45:05,VALID,999.77,VALID,0,VALID,90.1058,VALID,0,VALID,24.9093,VALID,116,VALID,1.63711,
2012-05-28, 00:46:05,VALID,999.759,VALID,0,VALID,89.587,VALID,0,VALID,24.9893,VALID,113,VALID,1.03906,
2012-05-28, 00:47:05,VALID,999.743,VALID,0,VALID,89.1826,VALID,0,VALID,25.046,VALID,100,VALID,1.21055,
2012-05-28, 00:48:05,VALID,999.75,VALID,0,VALID,88.8546,VALID,0,VALID,25.1064,VALID,99,VALID,1.17578,
2012-05-28, 00:49:05,VALID,999.713,VALID,0,VALID,88.6562,VALID,0,VALID,25.165,VALID,100,VALID,1.17344,
2012-05-28, 00:50:05,VALID,999.727,VALID,0,VALID,88.5799,VALID,0,VALID,25.1845,VALID,82,VALID,0.885156,
2012-05-28, 00:51:05,VALID,999.748,VALID,0,VALID,88.6867,VALID,0,VALID,25.1436,VALID,76,VALID,0.220703,
2012-05-28, 00:52:05,VALID,999.731,VALID,0,VALID,88.763,VALID,0,VALID,25.1455,VALID,76,VALID,0.366406,
2012-05-28, 00:53:05,VALID,999.724,VALID,0,VALID,88.7554,VALID,0,VALID,25.126,VALID,84,VALID,0.129297,
2012-05-28, 00:54:05,VALID,999.695,VALID,0,VALID,88.7554,VALID,0,VALID,25.0869,VALID,84,VALID,0.101563,
2012-05-28, 00:55:05,VALID,999.739,VALID,0,VALID,88.8546,VALID,0,VALID,25.046,VALID,84,VALID,0.159766,
2012-05-28, 00:56:05,VALID,999.676,VALID,0,VALID,88.9537,VALID,0,VALID,25.0479,VALID,84,VALID,0.260156,
2012-05-28, 00:57:05,VALID,999.699,VALID,0,VALID,89.1292,VALID,0,VALID,25.0479,VALID,84,VALID,0.0640625,
2012-05-28, 00:58:05,VALID,999.69,VALID,0,VALID,89.0911,VALID,0,VALID,25.0069,VALID,84,VALID,0.00507812,
2012-05-28, 00:59:05,VALID,999.705,VALID,0,VALID,89.3123,VALID,0,VALID,25.0284,VALID,111,VALID,1.08789,
2012-05-28, 01:00:05,VALID,999.662,VALID,0,VALID,89.1521,VALID,0,VALID,25.0674,VALID,100,VALID,0.485547,
2012-05-28, 01:01:05,VALID,999.609,VALID,0,VALID,89.0682,VALID,0,VALID,25.0479,VALID,99,VALID,0.577734,
2012-05-28, 01:02:05,VALID,999.602,VALID,0,VALID,89.1292,VALID,0,VALID,25.0479,VALID,99,VALID,0.793359,
2012-05-28, 01:03:05,VALID,999.579,VALID,0,VALID,89.0453,VALID,0,VALID,25.0479,VALID,108,VALID,0.878516,
2012-05-28, 01:04:05,VALID,999.559,VALID,0,VALID,88.9843,VALID,0,VALID,25.0674,VALID,99,VALID,0.822656,
2012-05-28, 01:05:05,VALID,999.577,VALID,0,VALID,88.9385,VALID,0,VALID,25.0869,VALID,104,VALID,1.16211,
2012-05-28, 01:06:05,VALID,999.549,VALID,0,VALID,89.0453,VALID,0,VALID,25.0869,VALID,100,VALID,1.22109,
2012-05-28, 01:07:05,VALID,999.512,VALID,0,VALID,89.1903,VALID,0,VALID,25.0869,VALID,100,VALID,0.939453,
2012-05-28, 01:08:05,VALID,999.493,VALID,0,VALID,89.3505,VALID,0,VALID,25.0674,VALID,104,VALID,1.13906,
2012-05-28, 01:09:05,VALID,999.509,VALID,0,VALID,89.3276,VALID,0,VALID,25.0869,VALID,104,VALID,0.855469,
2012-05-28, 01:10:05,VALID,999.481,VALID,0,VALID,89.3505,VALID,0,VALID,25.0674,VALID,113,VALID,0.794141,
2012-05-28, 01:11:05,VALID,999.466,VALID,0,VALID,89.3581,VALID,0,VALID,25.0869,VALID,108,VALID,0.675,
2012-05-28, 01:12:05,VALID,999.459,VALID,0,VALID,89.2589,VALID,0,VALID,25.0869,VALID,108,VALID,0.845703,
2012-05-28, 01:13:05,VALID,999.455,VALID,0,VALID,89.2208,VALID,0,VALID,25.1064,VALID,104,VALID,1.06289,
2012-05-28, 01:14:05,VALID,999.461,VALID,0,VALID,89.03,VALID,0,VALID,25.1455,VALID,109,VALID,1.31484,
2012-05-28, 01:15:05,VALID,999.476,VALID,0,VALID,88.6791,VALID,0,VALID,25.2021,VALID,118,VALID,0.985156,
2012-05-28, 01:16:05,VALID,999.478,VALID,0,VALID,88.3052,VALID,0,VALID,25.2431,VALID,148,VALID,1.17188,
2012-05-28, 01:17:05,VALID,999.459,VALID,0,VALID,88.0229,VALID,0,VALID,25.2802,VALID,120,VALID,0.889844,
2012-05-28, 01:18:05,VALID,999.46,VALID,0,VALID,87.794,VALID,0,VALID,25.2802,VALID,123,VALID,1.26328,
2012-05-28, 01:19:05,VALID,999.439,VALID,0,VALID,87.4583,VALID,0,VALID,25.3193,VALID,122,VALID,1.36328,
2012-05-28, 01:20:05,VALID,999.416,VALID,0,VALID,87.4889,VALID,0,VALID,25.3407,VALID,124,VALID,0.725,
2012-05-28, 01:21:05,VALID,999.422,VALID,0,VALID,87.4354,VALID,0,VALID,25.3407,VALID,119,VALID,0.996094,
2012-05-28, 01:22:05,VALID,999.382,VALID,0,VALID,87.466,VALID,0,VALID,25.3407,VALID,128,VALID,0.826172,
2012-05-28, 01:23:05,VALID,999.36,VALID,0,VALID,87.5423,VALID,0,VALID,25.3017,VALID,125,VALID,0.8375,
2012-05-28, 01:24:05,VALID,999.385,VALID,0,VALID,87.6414,VALID,0,VALID,25.2607,VALID,107,VALID,0.907812,
2012-05-28, 01:25:05,VALID,999.359,VALID,0,VALID,87.6567,VALID,0,VALID,25.2607,VALID,117,VALID,0.819141,
2012-05-28, 01:26:05,VALID,999.366,VALID,0,VALID,87.5423,VALID,0,VALID,25.2607,VALID,116,VALID,0.805859,
2012-05-28, 01:27:05,VALID,999.399,VALID,0,VALID,87.6109,VALID,0,VALID,25.2821,VALID,111,VALID,0.845703,
2012-05-28, 01:28:05,VALID,999.36,VALID,0,VALID,87.6872,VALID,0,VALID,25.2821,VALID,107,VALID,0.738281,
2012-05-28, 01:29:05,VALID,999.38,VALID,0,VALID,87.7711,VALID,0,VALID,25.2431,VALID,105,VALID,1.05742,
2012-05-28, 01:30:05,VALID,999.357,VALID,0,VALID,87.9009,VALID,0,VALID,25.2431,VALID,115,VALID,0.878906,
2012-05-28, 01:31:05,VALID,999.378,VALID,0,VALID,87.9237,VALID,0,VALID,25.2236,VALID,132,VALID,0.633984,
2012-05-28, 01:32:05,VALID,999.357,VALID,0,VALID,87.8703,VALID,0,VALID,25.2236,VALID,132,VALID,0.638281,
2012-05-28, 01:33:05,VALID,999.325,VALID,0,VALID,87.7864,VALID,0,VALID,25.1826,VALID,132,VALID,0.396875,
2012-05-28, 01:34:05,VALID,999.339,VALID,0,VALID,87.7101,VALID,0,VALID,25.204,VALID,130,VALID,0.623828,
2012-05-28, 01:35:05,VALID,999.329,VALID,0,VALID,87.5728,VALID,0,VALID,25.2236,VALID,132,VALID,0.855859,
2012-05-28, 01:36:05,VALID,999.335,VALID,0,VALID,87.4431,VALID,0,VALID,25.2236,VALID,119,VALID,0.875391,
2012-05-28, 01:37:05,VALID,999.296,VALID,0,VALID,87.5651,VALID,0,VALID,25.1845,VALID,121,VALID,0.75625,
2012-05-28, 01:38:05,VALID,999.296,VALID,0,VALID,87.4965,VALID,0,VALID,25.165,VALID,127,VALID,0.623828,
2012-05-28, 01:39:05,VALID,999.276,VALID,0,VALID,87.7788,VALID,0,VALID,25.126,VALID,122,VALID,1.05,
2012-05-28, 01:40:05,VALID,999.277,VALID,0,VALID,87.794,VALID,0,VALID,25.1455,VALID,122,VALID,0.702734,
2012-05-28, 01:41:05,VALID,999.268,VALID,0,VALID,87.8627,VALID,0,VALID,25.1064,VALID,126,VALID,0.819531,
2012-05-28, 01:42:05,VALID,999.266,VALID,0,VALID,87.9848,VALID,0,VALID,25.0674,VALID,126,VALID,0.793359,
2012-05-28, 01:43:05,VALID,999.255,VALID,0,VALID,88.1908,VALID,0,VALID,25.0479,VALID,131,VALID,1.0125,
2012-05-28, 01:44:04,VALID,999.271,VALID,0,VALID,88.2671,VALID,0,VALID,25.0479,VALID,135,VALID,1.01055,
2012-05-28, 01:45:04,VALID,999.235,VALID,0,VALID,88.145,VALID,0,VALID,25.0674,VALID,135,VALID,1.08477,
2012-05-28, 01:46:04,VALID,999.279,VALID,0,VALID,88.1221,VALID,0,VALID,25.085,VALID,141,VALID,1.08242,
2012-05-28, 01:47:04,VALID,999.289,VALID,0,VALID,87.9848,VALID,0,VALID,25.126,VALID,141,VALID,1.00898,
2012-05-28, 01:48:04,VALID,999.298,VALID,0,VALID,87.8932,VALID,0,VALID,25.1045,VALID,143,VALID,1.20625,
2012-05-28, 01:49:04,VALID,999.261,VALID,0,VALID,87.733,VALID,0,VALID,25.1455,VALID,148,VALID,1.12344,
2012-05-28, 01:50:04,VALID,999.266,VALID,0,VALID,87.5575,VALID,0,VALID,25.1436,VALID,148,VALID,0.909375,
2012-05-28, 01:51:04,VALID,999.237,VALID,0,VALID,87.4049,VALID,0,VALID,25.1845,VALID,143,VALID,1.06562,
2012-05-28, 01:52:04,VALID,999.265,VALID,0,VALID,87.2829,VALID,0,VALID,25.1826,VALID,142,VALID,0.882422,
2012-05-28, 01:53:04,VALID,999.25,VALID,0,VALID,87.2447,VALID,0,VALID,25.1826,VALID,145,VALID,0.939844,
2012-05-28, 01:54:04,VALID,999.241,VALID,0,VALID,87.1532,VALID,0,VALID,25.204,VALID,147,VALID,1.11641,
2012-05-28, 01:55:04,VALID,999.271,VALID,0,VALID,87.054,VALID,0,VALID,25.1826,VALID,145,VALID,1.20859,
2012-05-28, 01:56:04,VALID,999.288,VALID,0,VALID,86.9853,VALID,0,VALID,25.1826,VALID,148,VALID,1.07148,
2012-05-28, 01:57:04,VALID,999.285,VALID,0,VALID,87.0158,VALID,0,VALID,25.1826,VALID,153,VALID,0.939453,
2012-05-28, 01:58:04,VALID,999.317,VALID,0,VALID,86.9395,VALID,0,VALID,25.2021,VALID,149,VALID,0.970312,
2012-05-28, 01:59:04,VALID,999.339,VALID,0,VALID,86.7411,VALID,0,VALID,25.2626,VALID,156,VALID,0.937109,
2012-05-28, 02:00:04,VALID,999.303,VALID,0,VALID,86.5046,VALID,0,VALID,25.2802,VALID,156,VALID,0.779688,
2012-05-28, 02:01:04,VALID,999.349,VALID,0,VALID,86.3597,VALID,0,VALID,25.2802,VALID,156,VALID,0.745703,
2012-05-28, 02:02:04,VALID,999.331,VALID,0,VALID,86.4207,VALID,0,VALID,25.2607,VALID,156,VALID,0.876562,
2012-05-28, 02:03:04,VALID,999.379,VALID,0,VALID,86.4054,VALID,0,VALID,25.2802,VALID,156,VALID,0.576563,
2012-05-28, 02:04:04,VALID,999.375,VALID,0,VALID,86.3826,VALID,0,VALID,25.2607,VALID,156,VALID,0.386328,
2012-05-28, 02:05:04,VALID,999.378,VALID,0,VALID,86.3673,VALID,0,VALID,25.2412,VALID,156,VALID,0.445703,
2012-05-28, 02:06:04,VALID,999.398,VALID,0,VALID,86.3826,VALID,0,VALID,25.2412,VALID,156,VALID,0.392188,
2012-05-28, 02:07:04,VALID,999.404,VALID,0,VALID,86.3673,VALID,0,VALID,25.2021,VALID,156,VALID,0.0542969,
2012-05-28, 02:08:04,VALID,999.411,VALID,0,VALID,86.5428,VALID,0,VALID,25.1826,VALID,156,VALID,0,
2012-05-28, 02:09:04,VALID,999.421,VALID,0,VALID,86.8098,VALID,0,VALID,25.165,VALID,156,VALID,0,
2012-05-28, 02:10:04,VALID,999.399,VALID,0,VALID,87.3439,VALID,0,VALID,25.1045,VALID,156,VALID,0,
2012-05-28, 02:11:04,VALID,999.387,VALID,0,VALID,87.8093,VALID,0,VALID,25.0265,VALID,156,VALID,0.0433594,
2012-05-28, 02:12:04,VALID,999.387,VALID,0,VALID,88.3663,VALID,0,VALID,24.9289,VALID,156,VALID,0.501562,
2012-05-28, 02:13:04,VALID,999.389,VALID,0,VALID,88.9385,VALID,0,VALID,24.8722,VALID,156,VALID,0.405859,
2012-05-28, 02:14:04,VALID,999.368,VALID,0,VALID,89.3581,VALID,0,VALID,24.7922,VALID,156,VALID,0.373437,
2012-05-28, 02:15:04,VALID,999.368,VALID,0,VALID,89.7167,VALID,0,VALID,24.7551,VALID,156,VALID,0.414063,
2012-05-28, 02:16:04,VALID,999.336,VALID,0,VALID,89.999,VALID,0,VALID,24.6946,VALID,156,VALID,0.290234,
2012-05-28, 02:17:04,VALID,999.312,VALID,0,VALID,89.9227,VALID,0,VALID,24.6751,VALID,156,VALID,0,
2012-05-28, 02:18:04,VALID,999.315,VALID,0,VALID,90.0524,VALID,0,VALID,24.6751,VALID,156,VALID,0,
2012-05-28, 02:19:04,VALID,999.284,VALID,0,VALID,90.0829,VALID,0,VALID,24.6556,VALID,156,VALID,0,
2012-05-28, 02:20:04,VALID,999.294,VALID,0,VALID,89.9685,VALID,0,VALID,24.6751,VALID,156,VALID,0,
2012-05-28, 02:21:04,VALID,999.292,VALID,0,VALID,89.8922,VALID,0,VALID,24.6556,VALID,156,VALID,0,
2012-05-28, 02:22:04,VALID,999.267,VALID,0,VALID,89.8006,VALID,0,VALID,24.677,VALID,156,VALID,0,
2012-05-28, 02:23:04,VALID,999.237,VALID,0,VALID,89.7091,VALID,0,VALID,24.6361,VALID,156,VALID,0,
2012-05-28, 02:24:04,VALID,999.291,VALID,0,VALID,89.6175,VALID,0,VALID,24.6166,VALID,156,VALID,0,
2012-05-28, 02:25:04,VALID,999.278,VALID,0,VALID,89.6786,VALID,0,VALID,24.5775,VALID,156,VALID,0,
2012-05-28, 02:26:04,VALID,999.296,VALID,0,VALID,90.1211,VALID,0,VALID,24.5989,VALID,156,VALID,0,
2012-05-28, 02:27:04,VALID,999.299,VALID,0,VALID,90.3652,VALID,0,VALID,24.5971,VALID,156,VALID,0,
2012-05-28, 02:28:04,VALID,999.298,VALID,0,VALID,90.35,VALID,0,VALID,24.6184,VALID,156,VALID,0,
2012-05-28, 02:29:04,VALID,999.275,VALID,0,VALID,90.2508,VALID,0,VALID,24.5775,VALID,156,VALID,0,
2012-05-28, 02:30:04,VALID,999.29,VALID,0,VALID,90.3576,VALID,0,VALID,24.5794,VALID,156,VALID,0,
2012-05-28, 02:31:04,VALID,999.281,VALID,0,VALID,90.6323,VALID,0,VALID,24.6184,VALID,156,VALID,0,
2012-05-28, 02:32:04,VALID,999.291,VALID,0,VALID,90.7696,VALID,0,VALID,24.5775,VALID,156,VALID,0,
2012-05-28, 02:33:04,VALID,999.296,VALID,0,VALID,90.7849,VALID,0,VALID,24.558,VALID,156,VALID,0,
2012-05-28, 02:34:04,VALID,999.312,VALID,0,VALID,90.9069,VALID,0,VALID,24.5385,VALID,156,VALID,0,
2012-05-28, 02:35:04,VALID,999.322,VALID,0,VALID,90.9832,VALID,0,VALID,24.5385,VALID,156,VALID,0,
2012-05-28, 02:36:04,VALID,999.312,VALID,0,VALID,91.1129,VALID,0,VALID,24.519,VALID,156,VALID,0,
2012-05-28, 02:37:04,VALID,999.332,VALID,0,VALID,91.2045,VALID,0,VALID,24.5209,VALID,156,VALID,0,
2012-05-28, 02:38:04,VALID,999.311,VALID,0,VALID,91.2808,VALID,0,VALID,24.5013,VALID,156,VALID,0,
2012-05-28, 02:39:04,VALID,999.297,VALID,0,VALID,91.1968,VALID,0,VALID,24.4623,VALID,156,VALID,0,
2012-05-28, 02:40:04,VALID,999.297,VALID,0,VALID,91.2197,VALID,0,VALID,24.4037,VALID,156,VALID,0,
2012-05-28, 02:41:04,VALID,999.293,VALID,0,VALID,91.6317,VALID,0,VALID,24.3433,VALID,156,VALID,0,
2012-05-28, 02:42:04,VALID,999.252,VALID,0,VALID,91.8454,VALID,0,VALID,24.3452,VALID,91,VALID,0.392969,
2012-05-28, 02:43:04,VALID,999.24,VALID,0,VALID,92.2879,VALID,0,VALID,24.3062,VALID,20,VALID,0.548047,
2012-05-28, 02:44:04,VALID,999.24,VALID,0,VALID,92.6007,VALID,0,VALID,24.2671,VALID,20,VALID,0.526563,
2012-05-28, 02:45:04,VALID,999.222,VALID,0,VALID,92.7838,VALID,0,VALID,24.2671,VALID,20,VALID,0.521875,
2012-05-28, 02:46:04,VALID,999.196,VALID,0,VALID,92.9364,VALID,0,VALID,24.2866,VALID,20,VALID,0.317187,
2012-05-28, 02:47:04,VALID,999.17,VALID,0,VALID,93.0585,VALID,0,VALID,24.2476,VALID,20,VALID,0.261719,
2012-05-28, 02:48:04,VALID,999.151,VALID,0,VALID,93.1119,VALID,0,VALID,24.2476,VALID,20,VALID,0.199219,
2012-05-28, 02:49:04,VALID,999.124,VALID,0,VALID,93.1119,VALID,0,VALID,24.2067,VALID,20,VALID,0.188281,
2012-05-28, 02:50:04,VALID,999.14,VALID,0,VALID,93.089,VALID,0,VALID,24.2067,VALID,20,VALID,0.204297,
2012-05-28, 02:51:04,VALID,999.181,VALID,0,VALID,93.1958,VALID,0,VALID,24.1872,VALID,20,VALID,0.276172,
2012-05-28, 02:52:04,VALID,999.178,VALID,0,VALID,93.3255,VALID,0,VALID,24.1677,VALID,20,VALID,0.307813,
2012-05-28, 02:53:04,VALID,999.179,VALID,0,VALID,93.4552,VALID,0,VALID,24.1287,VALID,20,VALID,0.453516,
2012-05-28, 02:54:04,VALID,999.166,VALID,0,VALID,93.6383,VALID,0,VALID,24.1287,VALID,20,VALID,0.566797,
2012-05-28, 02:55:04,VALID,999.241,VALID,0,VALID,93.6383,VALID,0,VALID,24.1287,VALID,20,VALID,0.500391,
2012-05-28, 02:56:04,VALID,999.231,VALID,0,VALID,93.5544,VALID,0,VALID,24.1891,VALID,20,VALID,0.348437,
2012-05-28, 02:57:04,VALID,999.294,VALID,0,VALID,93.356,VALID,0,VALID,24.1677,VALID,20,VALID,0.316406,
2012-05-28, 02:58:04,VALID,999.263,VALID,0,VALID,93.0814,VALID,0,VALID,24.1287,VALID,20,VALID,0.525781,
2012-05-28, 02:59:04,VALID,999.256,VALID,0,VALID,92.9059,VALID,0,VALID,24.111,VALID,20,VALID,0.556641,
2012-05-28, 03:00:04,VALID,999.236,VALID,0,VALID,93.0508,VALID,0,VALID,24.0915,VALID,59,VALID,0.810938,
2012-05-28, 03:01:04,VALID,999.254,VALID,0,VALID,93.2111,VALID,0,VALID,24.0701,VALID,70,VALID,0.994531,
2012-05-28, 03:02:04,VALID,999.249,VALID,0,VALID,93.2416,VALID,0,VALID,24.0506,VALID,70,VALID,0.941797,
2012-05-28, 03:03:04,VALID,999.298,VALID,0,VALID,93.3942,VALID,0,VALID,24.0506,VALID,70,VALID,0.823438,
2012-05-28, 03:04:04,VALID,999.32,VALID,0,VALID,93.501,VALID,0,VALID,24.0525,VALID,70,VALID,0.635547,
2012-05-28, 03:05:04,VALID,999.306,VALID,0,VALID,93.5086,VALID,0,VALID,24.072,VALID,70,VALID,0.4125,
2012-05-28, 03:06:04,VALID,999.299,VALID,0,VALID,93.4323,VALID,0,VALID,24.0525,VALID,70,VALID,0.171484,
2012-05-28, 03:07:04,VALID,999.341,VALID,0,VALID,93.3408,VALID,0,VALID,24.0525,VALID,70,VALID,0,
2012-05-28, 03:08:04,VALID,999.371,VALID,0,VALID,93.3179,VALID,0,VALID,23.9921,VALID,70,VALID,0,
2012-05-28, 03:09:04,VALID,999.403,VALID,0,VALID,93.4628,VALID,0,VALID,24.0134,VALID,70,VALID,0,
2012-05-28, 03:10:04,VALID,999.397,VALID,0,VALID,93.5544,VALID,0,VALID,24.0134,VALID,70,VALID,0,
2012-05-28, 03:11:04,VALID,999.452,VALID,0,VALID,93.6078,VALID,0,VALID,23.9531,VALID,70,VALID,0.522656,
2012-05-28, 03:12:04,VALID,999.471,VALID,0,VALID,93.6994,VALID,0,VALID,23.9549,VALID,70,VALID,0.457422,
2012-05-28, 03:13:04,VALID,999.474,VALID,0,VALID,93.7909,VALID,0,VALID,23.914,VALID,70,VALID,0.432813,
2012-05-28, 03:14:04,VALID,999.515,VALID,0,VALID,93.9588,VALID,0,VALID,23.9336,VALID,70,VALID,0.487891,
2012-05-28, 03:15:04,VALID,999.539,VALID,0,VALID,94.0732,VALID,0,VALID,23.9336,VALID,70,VALID,0.438672,
2012-05-28, 03:16:04,VALID,999.508,VALID,0,VALID,94.1343,VALID,0,VALID,23.9354,VALID,70,VALID,0.406641,
2012-05-28, 03:17:04,VALID,999.539,VALID,0,VALID,94.2029,VALID,0,VALID,23.9354,VALID,70,VALID,0.257031,
2012-05-28, 03:18:04,VALID,999.509,VALID,0,VALID,94.264,VALID,0,VALID,23.9336,VALID,70,VALID,0.169922,
2012-05-28, 03:19:04,VALID,999.494,VALID,0,VALID,94.264,VALID,0,VALID,23.9159,VALID,70,VALID,0.00703125,
2012-05-28, 03:20:04,VALID,999.495,VALID,0,VALID,94.2868,VALID,0,VALID,23.8963,VALID,70,VALID,0,
2012-05-28, 03:21:04,VALID,999.49,VALID,0,VALID,94.325,VALID,0,VALID,23.8945,VALID,70,VALID,0,
2012-05-28, 03:22:04,VALID,999.499,VALID,0,VALID,94.4013,VALID,0,VALID,23.875,VALID,70,VALID,0.226172,
2012-05-28, 03:23:04,VALID,999.514,VALID,0,VALID,94.4623,VALID,0,VALID,23.8963,VALID,70,VALID,0.146094,
2012-05-28, 03:24:04,VALID,999.488,VALID,0,VALID,94.4776,VALID,0,VALID,23.8555,VALID,70,VALID,0.333984,
2012-05-28, 03:25:04,VALID,999.519,VALID,0,VALID,94.5157,VALID,0.104696,VALID,23.836,VALID,70,VALID,0.411719,
2012-05-28, 03:26:04,VALID,999.524,VALID,0,VALID,94.5768,VALID,0,VALID,23.8573,VALID,70,VALID,0.514453,
2012-05-28, 03:27:04,VALID,999.515,VALID,0,VALID,94.6149,VALID,0,VALID,23.8768,VALID,70,VALID,0.283594,
2012-05-28, 03:28:04,VALID,999.494,VALID,0,VALID,94.4928,VALID,0,VALID,23.875,VALID,70,VALID,0.347266,
2012-05-28, 03:29:04,VALID,999.548,VALID,0,VALID,94.2945,VALID,0,VALID,23.8573,VALID,70,VALID,0.301562,
2012-05-28, 03:30:04,VALID,999.55,VALID,0,VALID,94.1266,VALID,0,VALID,23.8165,VALID,70,VALID,0.192188,
2012-05-28, 03:31:04,VALID,999.525,VALID,0,VALID,94.0198,VALID,0,VALID,23.8183,VALID,70,VALID,0.16875,
2012-05-28, 03:32:04,VALID,999.535,VALID,0,VALID,94.058,VALID,0,VALID,23.8165,VALID,70,VALID,0.245703,
2012-05-28, 03:33:04,VALID,999.505,VALID,0,VALID,94.1877,VALID,0,VALID,23.8573,VALID,70,VALID,0,
2012-05-28, 03:34:04,VALID,999.495,VALID,0,VALID,94.264,VALID,0,VALID,23.8768,VALID,70,VALID,0.291406,
2012-05-28, 03:35:04,VALID,999.455,VALID,0,VALID,94.2792,VALID,0,VALID,23.9354,VALID,70,VALID,0.424609,
2012-05-28, 03:36:04,VALID,999.462,VALID,0,VALID,94.2182,VALID,0,VALID,23.9744,VALID,70,VALID,0.512109,
2012-05-28, 03:37:04,VALID,999.435,VALID,0,VALID,94.0808,VALID,0,VALID,23.9939,VALID,70,VALID,0.424219,
2012-05-28, 03:38:04,VALID,999.401,VALID,0,VALID,93.8901,VALID,0,VALID,24.0329,VALID,70,VALID,0.391016,
2012-05-28, 03:39:04,VALID,999.43,VALID,0,VALID,93.7223,VALID,0,VALID,24.0701,VALID,70,VALID,0.410547,
2012-05-28, 03:40:04,VALID,999.446,VALID,0,VALID,93.5926,VALID,0,VALID,24.1305,VALID,70,VALID,0.300391,
2012-05-28, 03:41:04,VALID,999.436,VALID,0,VALID,93.2645,VALID,0,VALID,24.111,VALID,70,VALID,0.307813,
2012-05-28, 03:42:04,VALID,999.42,VALID,0,VALID,93.028,VALID,0,VALID,24.0897,VALID,70,VALID,0.425,
2012-05-28, 03:43:04,VALID,999.444,VALID,0,VALID,92.8601,VALID,0,VALID,24.0915,VALID,31,VALID,0.667578,
2012-05-28, 03:44:04,VALID,999.432,VALID,0,VALID,92.7075,VALID,0,VALID,24.0506,VALID,31,VALID,0.551562,
2012-05-28, 03:45:04,VALID,999.435,VALID,0,VALID,92.8754,VALID,0,VALID,24.0311,VALID,31,VALID,0.680469,
2012-05-28, 03:46:04,VALID,999.461,VALID,0,VALID,93.1348,VALID,0,VALID,23.9921,VALID,22,VALID,0.666406,
2012-05-28, 03:47:04,VALID,999.473,VALID,0,VALID,93.2645,VALID,0,VALID,23.9726,VALID,22,VALID,0.620313,
2012-05-28, 03:48:04,VALID,999.456,VALID,0,VALID,93.4476,VALID,0,VALID,23.9939,VALID,22,VALID,0.575781,